Address 0x0d6233a5e5bf96c7714b626196121867f16732a7

Txn Hash Method
Block
From
To
Value [Txn Fee]
0x459ced6ccce1f85cf91274f4f37a226f429b1fdf9a147db44c64c19bf6d079f50x5e1c105967019722023-01-28 14:12:5027 mins ago0x0d6233a5e5bf96c7714b626196121867f16732a7OUT 0xc2308db5d15aa43228d2c64cfb6cf62bfbd480b20 CRO2.50
0x0148b889a231af34c0311b98b4b5fe6ef61ae81b9c6a983e2837bc286aa2eeca0x5e1c105967017492023-01-28 13:51:4648 mins ago0x0d6233a5e5bf96c7714b626196121867f16732a7OUT 0xc2308db5d15aa43228d2c64cfb6cf62bfbd480b20 CRO2.50
0x0a50dd7ce299aa5f29e2ff7301c7d1cf7c1e98c8f18bfe915d96797899b3e2e40x5e1c105967016352023-01-28 13:40:5758 mins ago0x0d6233a5e5bf96c7714b626196121867f16732a7OUT 0xc2308db5d15aa43228d2c64cfb6cf62bfbd480b20 CRO2.50
0xba923f28526892fee2a93e35110461cc3b10fddb566e5483baaa2a7fb78f25220x5e1c105967015842023-01-28 13:36:071 hr 3 mins ago0x0d6233a5e5bf96c7714b626196121867f16732a7OUT 0xc2308db5d15aa43228d2c64cfb6cf62bfbd480b20 CRO2.50
0xc70844668cb8749020c9ead40485575e453c0080f47b6e8ffbf0888e057a97a90x5e1c105967014992023-01-28 13:28:041 hr 11 mins ago0x0d6233a5e5bf96c7714b626196121867f16732a7OUT 0xc2308db5d15aa43228d2c64cfb6cf62bfbd480b20 CRO2.50
0x53b6de1986d75fdf378c87d41ed14ce6e691aa7032b03bfa5ec8a0409f5bf1970x5e1c105967012862023-01-28 13:07:551 hr 31 mins ago0x0d6233a5e5bf96c7714b626196121867f16732a7OUT 0xc2308db5d15aa43228d2c64cfb6cf62bfbd480b20 CRO2.50
0xc33a0b222bccb5567adb56b87dc7b87f9d8bdcaef97055031a3b947cca6719520x5e1c105967012132023-01-28 13:01:011 hr 38 mins ago0x0d6233a5e5bf96c7714b626196121867f16732a7OUT 0xc2308db5d15aa43228d2c64cfb6cf62bfbd480b20 CRO2.50
0xdfc9567bf21239731709674c425500f3fa54801e260e5f67d66fff7cf90d9fbe0x5e1c105967010902023-01-28 12:49:221 hr 50 mins ago0x0d6233a5e5bf96c7714b626196121867f16732a7OUT 0xc2308db5d15aa43228d2c64cfb6cf62bfbd480b20 CRO2.50
0x7de42cb157f8219b40a97138fae94f6a164365f0b4b413da1b358ef60be665910x5e1c105967010522023-01-28 12:45:471 hr 54 mins ago0x0d6233a5e5bf96c7714b626196121867f16732a7OUT 0xc2308db5d15aa43228d2c64cfb6cf62bfbd480b20 CRO2.50
0x90542b1315e913cf43c3e1373be30709a8aef7a837230a12a2f668c2fd269d240x5e1c105967010202023-01-28 12:42:471 hr 57 mins ago0x0d6233a5e5bf96c7714b626196121867f16732a7OUT 0xc2308db5d15aa43228d2c64cfb6cf62bfbd480b20 CRO0.6556350
0x59d2d9d362076282423f8a14135590b54e51517c6fb91a523ab46a83dd86cbd00x5e1c105967009982023-01-28 12:40:421 hr 59 mins ago0x0d6233a5e5bf96c7714b626196121867f16732a7OUT 0xc2308db5d15aa43228d2c64cfb6cf62bfbd480b20 CRO0.6556350
0xf7b1bc98866a8cebdc0d67cdd271a5d607caf4d22078e9c732d72fda9f3b413f0x5e1c105967009012023-01-28 12:31:322 hrs 8 mins ago0x0d6233a5e5bf96c7714b626196121867f16732a7OUT 0xc2308db5d15aa43228d2c64cfb6cf62bfbd480b20 CRO2.50
0x4e9a0b63947d59c0dc8f7930cc955f2142bcf284222c269f8c77a16f2308fdaf0x5e1c105967008472023-01-28 12:26:252 hrs 13 mins ago0x0d6233a5e5bf96c7714b626196121867f16732a7OUT 0xc2308db5d15aa43228d2c64cfb6cf62bfbd480b20 CRO0.6556050
0xf3e9e29e8405c27ac363494ca319d8093e31f858bbcd8b9dfa1ec3a1997faab10x5e1c105967008212023-01-28 12:23:582 hrs 15 mins ago0x0d6233a5e5bf96c7714b626196121867f16732a7OUT 0xc2308db5d15aa43228d2c64cfb6cf62bfbd480b20 CRO2.50
0x69dddb4dec996e99d25c217db65edc655fc492ca1c270944ac3694487988e9d20x5e1c105967007942023-01-28 12:21:242 hrs 18 mins ago0x0d6233a5e5bf96c7714b626196121867f16732a7OUT 0xc2308db5d15aa43228d2c64cfb6cf62bfbd480b20 CRO2.50
0xee74c1c4c1bb6ea37c811849fa49dda7031adb65f500e44b222bf127e1c842cf0x5e1c105967007552023-01-28 12:17:442 hrs 22 mins ago0x0d6233a5e5bf96c7714b626196121867f16732a7OUT 0xc2308db5d15aa43228d2c64cfb6cf62bfbd480b20 CRO0.6556350
0xa8629ecc754467604ebb92d75cf4e30f921f57b3078cf36823c4f413cddb58200x5e1c105967007322023-01-28 12:15:332 hrs 24 mins ago0x0d6233a5e5bf96c7714b626196121867f16732a7OUT 0xc2308db5d15aa43228d2c64cfb6cf62bfbd480b20 CRO0.6556050
0xebb5ce1ceb691c1f5d18a29477d5e4e0e56574c314bb052897c9256b88795aa30x5e1c105967006182023-01-28 12:04:462 hrs 35 mins ago0x0d6233a5e5bf96c7714b626196121867f16732a7OUT 0xc2308db5d15aa43228d2c64cfb6cf62bfbd480b20 CRO2.50
0x8a53cd4d58f2a1ccf173f8905b3f1fbf8ecf19a9aebe10f591a54bb131bbfc410x5e1c105967004512023-01-28 11:49:002 hrs 50 mins ago0x0d6233a5e5bf96c7714b626196121867f16732a7OUT 0xc2308db5d15aa43228d2c64cfb6cf62bfbd480b20 CRO0.6556350
0xb44f19922c036ccab97ba31871563b6046a3f9b7962906578004b57fdc164e290x5e1c105967004172023-01-28 11:45:462 hrs 54 mins ago0x0d6233a5e5bf96c7714b626196121867f16732a7OUT 0xc2308db5d15aa43228d2c64cfb6cf62bfbd480b20 CRO0.6556350
0x0b77192109287686b200032099edbaf40e5df7367db0439c8b00567992174e400x5e1c105967003392023-01-28 11:38:253 hrs 1 min ago0x0d6233a5e5bf96c7714b626196121867f16732a7OUT 0xc2308db5d15aa43228d2c64cfb6cf62bfbd480b20 CRO2.50
0x3c6c1994f0a641960d10448bf5b0e1c7e6bf86c75bfc9c50d73ab4a2cc307a8e0x5e1c105967002932023-01-28 11:34:043 hrs 5 mins ago0x0d6233a5e5bf96c7714b626196121867f16732a7OUT 0xc2308db5d15aa43228d2c64cfb6cf62bfbd480b20 CRO0.6556050
0x9972bb803fc7989e89f548b527d3903ef876ed1396f0b646eb915144d0531d7f0x5e1c105967002682023-01-28 11:31:433 hrs 8 mins ago0x0d6233a5e5bf96c7714b626196121867f16732a7OUT 0xc2308db5d15aa43228d2c64cfb6cf62bfbd480b20 CRO2.50
0x539dabb4be2e74902b2126c63197be7c5989efeda8c0e85b84f7b56af74918d50x5e1c105967002472023-01-28 11:29:443 hrs 10 mins ago0x0d6233a5e5bf96c7714b626196121867f16732a7OUT 0xc2308db5d15aa43228d2c64cfb6cf62bfbd480b20 CRO2.50
0x6a287c8cd48969702dc095583571b4667e4e1bd33b7fd54939992fd9cc5335f30x5e1c105967000722023-01-28 11:13:123 hrs 26 mins ago0x0d6233a5e5bf96c7714b626196121867f16732a7OUT 0xc2308db5d15aa43228d2c64cfb6cf62bfbd480b20 CRO2.50
[ Download CSV Export 
Parent Txn Hash Block From To Value
Loading

Contract Name:
0

Compiler Version
0

Optimization Enabled:
0

Other Settings:
-NA-
Block Transaction Gas Used Reward
Age Block Fee Address BC Fee Address Voting Power Jailed Incoming
Block Uncle Number Difficulty Gas Used Reward
Loading
Make sure to use the "Vote Down" button for any spammy posts, and the "Vote Up" for interesting conversations.